{"data":{"norad_id":69156,"intl_designator":"2026-111J","name":"STARLINK-37345","alt_names":[],"object_type":"PAYLOAD","status":"ACTIVE","operator":null,"country":"US","launch_date":"2026-05-21","launch_site_code":"AFETR","launch_vehicle":null,"mission":null,"orbit_class":"UNKNOWN","rcs_meters":null,"size_class":null,"mass_kg":null,"dimensions":null,"purposes":["comms"],"wikipedia_slug":null,"has_3d_model":false,"image_url":null,"decayed_at":null,"tle_current":{"epoch":"2026-09-19T19:55:17.167584Z","epoch_age_seconds":81080,"freshness":"FRESH","line1":"1 69156U 26111J   26262.83005981  .00014278  00000+0  43281-3 0  9992","line2":"2 69156  53.1603  69.0086 0001014 100.5490 259.5627 15.34407441 18795","mean_motion":15.34407441,"eccentricity":0.0001014,"inclination_deg":53.1603,"raan_deg":69.0086,"arg_perigee_deg":100.549,"mean_anomaly_deg":259.5627,"bstar":0.00043281,"rev_number":1879,"period_min":93.847302973292,"perigee_km":461.98746511858,"apogee_km":463.37478303414,"semimajor_km":6840.8181240764,"source":"CELESTRAK","updated_at":"2026-09-20T09:00:44.090988Z"}}}